User: anonymous   Login
Location: Berkeley
(37.8716°N, 122.2727°W)
Time: 05:13:33
(UTC-07:00)
Language:

Envisat - Orbit

View from above orbital plane
View from above orbital plane
View from above satellite
View from above satellite

Ground track
Ground track

The orbit data is extracted from the following two-line orbital elements,

1 27386U 02009A   19294.00939858  .00000012  00000-0  17332-4 0  9997
2 27386  98.1450 308.6485 0001195  93.9451 299.1773 14.37960310924069
Epoch (UTC): 21 October 2019 00:13:32
Eccentricity: 0.0001195
inclination: 98.1450°
perigee height: 764 km
apogee height: 766 km
right ascension of ascending node: 308.6485°
argument of perigee: 93.9451°
revolutions per day: 14.37960310
mean anomaly at epoch: 299.1773°
orbit number at epoch: 92406

The dashed part of the orbit path shows where the satellite is in the earth's shadow,  

DLR